Simultaneous Nadir Overpasses (SNOs) Predictions

Prediction of SNOs near US between AQUA and NPP Satellite Orbit:

Table of predicted SNOs near US for the next 10.0 days since TLE Epoch: 8/24/2013
Index Date (AQUA) Time (AQUA) AQUA Lat,Lon Date (NPP) Time (NPP) NPP Lat,Lon Distance(km) Time Diff (sec)
1 08/25/2013 09:24:03 22.44,-113.72 08/25/2013 09:16:23 22.51,-114.15 44.74 460
2 08/28/2013 06:30:27 46.50, -65.03 08/28/2013 06:30:53 46.87, -66.99 155.63 26
3 08/28/2013 08:08:22 49.94, -88.38 08/28/2013 08:11:21 50.44, -90.83 183.58 179
4 08/28/2013 09:47:15 49.94,-113.10 08/28/2013 09:52:49 50.55,-116.16 227.99 334
5 08/30/2013 19:06:29 49.96, -92.55 08/30/2013 19:01:41 49.61, -94.47 143.23 288
6 08/30/2013 20:45:22 49.96,-117.27 08/30/2013 20:43:09 49.49,-119.79 188.58 133
7 09/02/2013 08:35:08 20.01,-101.90 09/02/2013 08:26:48 18.97,-102.35 125.22 500
8 09/02/2013 10:11:48 28.02,-124.68 09/02/2013 10:05:41 28.16,-125.38 70.88 367




NCC Satellite Simultaneous Nadir Overpasses (SNOs) Prediction Service
